Prerov, Czech Republic

7:02 AM CET on January 22, 2017 (GMT +0100)
Prerov

Weather History for LKPO - October, 2012

Change the Weather History Date:

Sunday, October 21, 2012

  Actual Average Record
Temperature  
Mean Temperature 50 °F -  
Max Temperature 59 °F - - ()
Min Temperature 41 °F - - ()
Degree Days  
Heating Degree Days 15    
Moisture  
Dew Point 46 °F    
Average Humidity 96    
Maximum Humidity 100    
Minimum Humidity 88    
Precipitation  
Precipitation 0.00 in - - ()
Sea Level Pressure  
Sea Level Pressure 30.13 in    
Wind  
Wind Speed 1 mph ()    
Max Wind Speed 4 mph    
Max Gust Speed -    
Visibility 0.8 miles    
Events Fog    
T = Trace of Precipitation, MM = Missing Value Source: Averaged Metar Reports

Daily Weather History Graph

Daily Weather History Graph

Search for Another Location

Airport or City:

Trip Planner

Search our weather history database for the weather conditions in past years. The results will help you decide how hot, cold, wet, or windy it might be!

Date:

Astronomy

Oct. 21, 2012 Rise Set
Actual Time 7:21 AM CEST 5:47 PM CEST
Civil Twilight 6:48 AM CEST 6:20 PM CEST
Nautical Twilight 6:11 AM CEST 6:57 PM CEST
Astronomical Twilight 5:34 AM CEST 7:34 PM CEST
Moon 1:42 PM CEST (10/21) 11:11 PM CEST (10/21)
Length of Visible Light 11h 31m
Length of Day
10h 26m
Waxing Crescent, 42% of the Moon is Illuminated
Oct 21
Waxing Crescent
Oct 22
First Quarter
Oct 29
Full
Nov 7
Last Quarter
Nov 13
New

Hourly Weather History & Observations

Time (CEST) Temp. Windchill Dew Point Humidity Pressure Visibility Wind Dir Wind Speed Gust Speed Precip Events Conditions
12:00 AM 41.0 °F - 41.0 °F 100% 30.12 in 0.1 mi WNW 1.2 mph - N/A Fog Fog
1:00 AM 41.0 °F - 41.0 °F 100% 30.12 in 0.1 mi Calm Calm - N/A Fog Fog
2:00 AM 41.0 °F - 41.0 °F 100% 30.12 in 0.1 mi Calm Calm - N/A Fog Fog
3:00 AM 42.8 °F - 41.0 °F 93% 30.12 in 0.1 mi Calm Calm - N/A Fog Fog
4:00 AM 42.8 °F - 41.0 °F 93% 30.12 in 0.1 mi Calm Calm - N/A Fog Fog
5:00 AM 42.8 °F - 41.0 °F 93% 30.12 in 0.1 mi Calm Calm - N/A Fog Fog
6:00 AM 42.8 °F - 41.0 °F 93% 30.12 in 0.1 mi Calm Calm - N/A Fog Fog
7:00 AM 42.8 °F - 41.0 °F 93% 30.12 in 0.1 mi Calm Calm - N/A Fog Fog
8:00 AM 42.8 °F - 41.0 °F 93% 30.15 in 0.1 mi Calm Calm - N/A Fog Fog
9:00 AM 42.8 °F - 41.0 °F 93% 30.15 in 0.1 mi Calm Calm - N/A Fog Fog
10:00 AM 42.8 °F - 42.8 °F 100% 30.15 in 0.1 mi Variable 1.2 mph - N/A Fog Fog
11:00 AM 44.6 °F - 42.8 °F 93% 30.15 in 0.1 mi Variable 1.2 mph - N/A Fog Fog
12:00 PM 46.4 °F 45.2 °F 44.6 °F 93% 30.15 in 0.1 mi WNW 3.5 mph - N/A Fog Fog
1:51 PM 50.0 °F - 50.0 °F 100% 30.12 in 0.6 mi Variable 2.3 mph - N/A   Scattered Clouds
2:00 PM 50.0 °F - 50.0 °F 100% 30.12 in 0.6 mi Variable 2.3 mph - N/A   Scattered Clouds
2:40 PM 53.6 °F - 51.8 °F 94% 30.12 in 1.0 mi Variable 1.2 mph - N/A   Partly Cloudy
3:00 PM 53.6 °F - 53.6 °F 100% 30.12 in 1.6 mi Calm Calm - N/A   Partly Cloudy
3:10 PM 55.4 °F - 55.4 °F 100% 30.12 in 2.5 mi Calm Calm - N/A   Mist
4:00 PM 59.0 °F - 57.2 °F 94% 30.12 in 2.8 mi Calm Calm - N/A   Mist
4:15 PM 59.0 °F - 55.4 °F 88% 30.12 in 3.1 mi Calm Calm - N/A   Mist
5:00 PM 57.2 °F - 53.6 °F 88% 30.12 in 3.1 mi South 3.5 mph - N/A   Mist
5:35 PM 53.6 °F - 51.8 °F 94% 30.12 in 2.8 mi South 2.3 mph - N/A   Mist
5:50 PM 51.8 °F - 51.8 °F 100% 30.12 in 1.7 mi South 2.3 mph - N/A Fog Fog
6:00 PM 51.8 °F - 50.0 °F 94% 30.12 in 1.6 mi SSE 2.3 mph - N/A Fog Fog
6:49 PM 48.2 °F - 48.2 °F 100% 30.12 in 0.4 mi SSW 1.2 mph - N/A Fog Fog
7:00 PM 48.2 °F - 48.2 °F 100% 30.12 in 0.3 mi Calm Calm - N/A Fog Fog
8:00 PM 44.6 °F - 42.8 °F 93% 30.12 in 0.1 mi Calm Calm - N/A Fog Fog
9:00 PM 42.8 °F - 41.0 °F 93% 30.15 in 0.1 mi Calm Calm - N/A Fog Fog
9:45 PM 42.8 °F - 42.8 °F 100% 30.15 in 0.1 mi Calm Calm - N/A Fog Fog
10:00 PM 44.6 °F - 42.8 °F 93% 30.15 in 0.1 mi Calm Calm - N/A Fog Fog
11:00 PM 46.4 °F - 44.6 °F 93% 30.18 in 0.1 mi Calm Calm - N/A Fog Fog